Wind_Speed
9 9 16 19 11 5 7 5 9 4 4 1 6 5 7 1 6 5 5 7 9 8 8 10 9 11 17 23 26 26 23 24 20 20 20 20 25 21 19 19 20 21 20 18
9 12 9 9 7 4 4 4 5 2 3 5 3 6 7 7 4 2 6 8 10 11 10 8 9 6 4 8 18 19 23 24 25 20 17 12 17 15 14 14 17 16 16 15
13 5 10 7 6 7 4 7 5 6 1 3 1 4 4 2 2 1 4 6 7 11 13 15 14 13 9 9 12 18 18 18 18 18 16 14 10 7 9 11 9 11 8 8
7 5 12 8 8 7 6 10 10 8 3 5 1 3 2 3 4 1 8 11 12 12 11 11 14 15 13 14 13 12 11 12 12 14 14 16 12 10 7 10 13 12 11 9
5 9 10 7 9 10 5 5 9 5 7 4 4 4 3 2 5 4 10 10 10 10 10 13 13 16 15 11 7 3 3 6 12 15 13 13 11 10 12 13 13 11 11 9
5 1 3 3 6 10 10 5 4 3 3 6 5 6 4 4 1 1 6 8 10 11 12 13 16 16 17 14 9 7 9 10 12 13 12 13 16 16 14 13 11 10 10 11
3 2 1 2 5 3 4 5 3 5 5 5 2 4 3 2 2 5 7 10 12 12 12 12 13 15 18 18 15 13 14 15 14 14 14 12 11 11 11 11 11 12 12 13
8 6 2 2 4 5 4 4 4 5 4 2 2 5 3 5 8 8 7 6 8 10 10 11 12 12 13 14 15 14 13 12 10 7 6 4 2 1 4 7 9 12 13 13
7 5 1 4 2 2 5 5 2 4 2 3 4 2 5 8 8 8 8 11 10 10 9 8 8 10 11 11 11 11 10 9 9 7 6 5 6 8 10 13 15 14 16 15
5 5 2 2 1 11 0 8 3 1 4 7 5 5 6 13 12 6 6 10 11 10 9 8 7 8 7 9 9 11 12 11 10 10 9 7 8 10 12 14 16 16 19 17
4 2 3 3 4 3 4 4 3 1 2 4 5 4 1 12 10 4 4 9 10 11 9 7 7 7 8 10 12 13 14 13 13 13 12 12 11 9 9 10 12 14 18 20
2 3 4 3 4 4 1 2 4 4 5 3 2 5 3 8 5 1 6 10 11 8 6 4 5 7 8 9 10 11 10 10 10 11 11 11 13 13 12 13 12 13 14 13
6 2 5 4 3 2 1 2 3 6 2 7 5 3 2 6 7 4 9 11 8 8 7 7 7 8 9 10 11 11 13 13 14 14 14 14 15 15 17 17 16 18 19 20
5 3 2 5 4 3 4 6 6 4 3 4 10 11 7 8 11 15 16 9 4 5 6 6 6 7 9 11 13 15 16 16 17 17 17 18 18 19 20 21 22 24 24 26
2 3 2 4 5 3 3 6 9 11 11 8 9 10 13 15 16 15 13 7 3 0 3 4 6 8 13 15 15 16 17 17 18 20 21 21 22 23 24 25 27 28 29 31
2 3 2 2 2 3 8 11 12 14 14 16 16 18 15 14 11 11 4 3 3 3 4 5 8 10 14 17 17 18 18 21 22 22 24 26 26 27 28 28 29 29 29 30
2 5 3 1 2 4 10 11 14 8 9 9 10 8 8 8 5 4 3 5 8 7 6 8 10 12 16 17 17 19 22 22 22 25 27 29 28 29 30 29 29 29 30 31
7 5 2 2 2 4 3 2 2 7 8 11 12 9 7 6 3 5 5 6 8 7 8 10 14 18 20 19 20 23 23 25 27 29 29 29 28 29 29 29 29 29 29 30
1 5 3 3 5 7 3 1 3 5 5 5 11 7 4 2 5 9 4 5 5 7 10 14 18 21 22 22 24 24 28 28 28 29 29 29 29 29 28 30 34 34 31 28
5 3 3 2 3 4 2 3 2 3 7 7 2 2 4 4 8 6 5 5 7 11 14 16 21 20 23 24 25 26 28 28 29 29 31 30 27 31 33 31 31 30 24 31
5 2 7 5 4 5 2 2 4 4 2 5 4 8 8 8 8 10 9 10 10 13 16 18 20 21 23 24 25 28 29 29 30 30 29 30 32 33 30 29 29 28 31 28
6 7 5 6 5 5 4 4 4 4 3 6 7 7 7 10 11 11 9 11 12 16 19 20 20 22 25 25 26 28 28 29 31 29 29 31 31 30 28 29 30 30 28 28
4 2 3 6 1 1 1 1 6 5 10 12 9 9 9 11 10 10 11 13 13 18 20 20 22 26 26 26 25 28 30 31 29 30 32 30 29 28 27 27 28 27 24 23
3 2 2 2 2 3 6 7 8 8 9 8 7 9 7 8 10 13 14 14 14 19 19 22 25 26 28 27 27 27 29 29 28 31 29 27 27 29 28 27 26 25 24 22
1 4 4 3 5 7 3 5 7 7 5 6 3 3 6 9 13 13 14 15 16 19 23 24 25 26 28 29 28 28 28 27 28 27 27 27 26 26 27 26 25 25 27 25
4 3 3 1 2 3 6 7 8 7 4 5 7 10 11 11 14 15 14 16 19 21 25 25 26 27 28 27 29 27 26 25 26 26 25 25 27 26 25 25 30 26 30 32
Wind_Direction
173 186 197 194 194 194 174 189 198 184 158 234 202 253 269 258 245 253 287 323 327 294 288 288 280 243 239 241 232 227 221 225 211 203 203 214 220 223 226 229 234 235 237 236
157 201 195 166 172 158 164 203 231 259 249 210 231 248 281 283 271 301 335 344 347 340 341 341 329 308 296 256 235 233 230 223 217 207 205 205 207 217 223 227 233 236 239 238
171 189 160 157 157 176 192 220 234 247 73 222 244 240 230 227 259 146 22 2 7 355 340 337 340 335 331 280 258 245 230 228 222 208 189 187 169 180 196 207 210 216 207 203
180 125 161 158 180 183 210 217 231 237 202 251 287 265 239 232 254 126 21 9 4 2 358 351 349 354 344 319 299 278 245 219 209 204 193 191 192 189 189 167 170 172 172 179
153 173 162 180 198 183 221 172 210 226 197 186 172 240 207 268 218 44 13 10 19 20 21 19 8 358 1 360 349 299 208 188 205 202 202 182 171 179 156 157 161 173 174 183
136 188 173 153 148 184 147 127 93 108 156 233 194 228 192 174 175 54 31 36 32 36 43 42 37 33 33 33 45 89 119 123 140 145 150 157 153 148 155 163 178 186 191 194
159 179 39 162 157 147 165 166 189 214 217 250 76 231 277 131 64 105 84 63 56 52 48 43 43 41 42 46 56 79 103 108 117 129 134 138 147 157 168 180 196 195 202 208
188 186 214 134 215 195 187 209 211 220 220 237 158 235 121 112 119 113 94 72 48 36 32 42 51 49 50 51 57 65 68 71 71 69 72 87 116 251 234 225 225 227 229 231
170 167 76 64 131 206 153 198 59 123 75 249 241 177 135 152 130 116 75 47 26 13 8 4 27 62 62 61 58 54 51 50 44 33 10 334 302 283 273 268 265 260 253 249
164 140 86 123 240 52 353 133 155 146 220 243 214 250 250 184 169 144 74 28 9 356 348 357 350 342 15 34 34 34 32 36 24 16 2 345 322 305 285 277 272 261 252 255
132 171 136 210 22 149 147 163 73 95 237 249 265 239 317 189 169 145 24 359 349 338 338 340 354 22 44 55 48 41 35 29 22 14 5 357 350 346 322 295 280 273 274 270
81 111 125 94 7 268 38 150 180 208 200 225 284 266 349 173 156 321 334 345 348 338 349 28 57 64 60 48 36 33 22 15 5 353 339 333 323 320 310 303 307 299 284 280
171 104 143 157 164 98 151 117 108 99 72 219 238 233 130 218 258 281 329 347 10 35 58 52 50 44 31 20 10 359 350 347 342 335 329 320 315 316 310 302 295 290 286 279
94 103 204 242 84 131 172 168 160 150 186 238 234 266 267 274 281 302 322 340 2 41 40 33 34 22 2 351 344 341 337 336 331 325 319 315 313 308 302 296 290 285 281 277
68 112 115 112 123 163 219 221 214 233 244 241 277 269 279 284 288 294 313 298 209 338 12 9 354 346 339 336 334 330 326 324 322 315 310 306 302 299 295 290 286 283 279 275
24 111 110 116 143 238 267 254 245 243 250 254 264 277 281 288 287 292 296 236 262 292 308 317 326 329 327 326 323 323 320 318 316 308 303 303 300 296 292 289 286 284 282 281
99 137 132 214 55 335 277 265 232 233 232 249 258 266 290 283 255 262 272 268 282 287 299 314 322 320 319 318 317 314 313 312 308 303 302 300 299 295 293 290 287 284 283 285
132 120 101 134 156 237 62 177 336 224 253 225 256 257 257 264 250 267 277 287 282 274 304 317 320 320 320 315 311 312 309 307 305 302 301 301 299 295 293 289 286 285 283 281
66 129 129 204 209 317 258 111 173 209 276 270 248 274 242 256 288 270 282 297 285 310 311 312 316 316 312 310 310 309 306 305 303 301 302 301 299 296 294 292 292 289 285 278
101 61 170 156 226 245 112 127 144 172 258 18 262 274 266 250 273 302 326 293 293 306 308 314 315 310 305 307 309 305 304 304 302 304 303 300 297 298 293 291 287 285 280 283
158 149 209 200 245 270 187 169 184 243 26 337 324 315 306 286 302 311 298 290 297 303 309 313 307 305 307 310 307 302 304 302 304 303 300 297 298 295 283 285 283 282 282 278
164 164 186 200 222 248 155 161 234 21 324 294 309 300 295 300 298 299 302 302 310 311 312 313 309 308 310 310 308 304 302 306 306 300 299 297 294 289 284 285 283 281 277 274
187 208 183 203 223 106 181 10 308 323 308 299 293 300 297 297 300 306 304 310 314 311 313 313 313 311 310 311 310 304 305 309 306 302 300 293 290 290 288 282 282 279 274 269
169 171 222 208 126 243 256 288 270 298 304 294 296 299 300 299 307 309 314 316 314 316 314 314 314 311 310 313 311 306 306 305 303 300 295 295 294 295 291 285 278 274 272 269
36 173 187 251 288 300 308 308 323 311 310 304 347 346 334 323 316 317 314 314 315 315 316 316 313 311 311 314 310 310 307 306 301 299 299 298 295 293 292 286 279 272 269 262
191 185 202 210 52 292 303 328 323 317 14 24 356 338 332 324 318 317 314 314 314 316 316 315 313 313 312 314 312 310 311 307 306 304 303 299 297 294 290 288 292 283 271 272
Height
758 761 762 756 761 760 762 770 772 767 760 763 765 763 751 754 752 748 748 750 747 743 738 741 742 741 740 739 741 743 745 747 751 755 760 763 765 771 773 775 777 780 782 783
759 759 756 754 759 759 763 768 770 765 761 767 763 762 755 750 749 747 749 746 745 742 736 739 740 737 734 736 738 741 742 744 745 750 755 759 762 766 770 772 775 777 779 781
753 751 752 755 762 766 767 768 768 766 767 764 766 765 760 751 750 750 750 752 750 748 743 738 739 737 735 736 737 737 740 743 746 748 752 755 759 763 766 768 771 774 778 779
747 748 751 756 761 759 770 757 758 764 770 773 766 776 765 756 752 752 754 751 751 750 747 743 738 737 736 735 736 737 739 740 744 749 750 752 756 759 763 767 770 774 775 778
750 750 755 758 754 755 758 756 761 764 771 772 775 774 761 765 756 756 758 758 757 753 749 745 743 739 737 736 735 735 738 740 742 745 751 750 753 759 762 766 770 774 774 776
745 741 741 743 748 751 754 760 767 771 770 775 766 766 762 761 763 760 761 759 758 755 751 748 747 744 740 738 737 737 739 742 744 746 749 752 755 758 763 766 770 771 772 773
748 746 742 742 750 752 753 757 771 775 771 772 775 772 756 766 765 763 762 760 757 754 752 751 749 748 747 745 744 744 744 744 746 749 750 754 757 759 761 764 768 768 769 769
754 764 749 745 746 749 755 755 765 783 779 769 777 766 761 765 765 765 763 761 758 756 754 753 752 752 751 751 750 750 752 751 752 754 754 755 757 760 760 761 763 763 764 764
753 758 750 748 745 747 759 760 765 773 788 776 760 765 768 767 765 764 762 760 760 758 757 756 754 753 753 753 753 753 753 753 753 754 754 755 757 757 757 759 760 761 761 761
745 759 756 752 748 752 750 759 767 769 783 782 766 767 751 766 764 765 762 763 763 760 758 757 756 756 756 756 756 756 756 755 756 755 755 754 754 754 755 756 757 756 755 756
740 746 761 754 761 757 760 759 768 765 770 771 768 757 756 753 760 764 764 764 764 760 757 757 758 759 760 759 759 759 758 758 758 757 757 756 755 753 754 753 752 751 753 753
750 751 761 768 770 767 763 763 761 770 774 776 777 767 757 756 760 764 763 763 760 760 759 761 761 761 761 761 761 761 761 760 759 759 758 755 755 753 752 751 747 747 749 745
745 758 766 771 770 767 766 771 774 777 780 773 776 760 759 761 762 761 760 761 760 760 760 761 761 761 762 762 761 760 760 758 757 756 754 753 752 749 746 745 744 743 742 741
744 759 753 756 762 767 771 773 773 774 786 768 771 760 759 758 757 753 752 759 761 761 762 763 762 762 763 762 760 758 756 755 754 752 750 748 746 745 742 740 738 737 735 733
748 758 762 769 770 771 770 771 772 775 770 776 760 769 761 758 756 755 757 759 761 761 762 763 762 762 761 759 758 756 755 753 751 748 746 743 741 738 736 733 730 728 725 722
759 766 765 767 772 773 773 768 769 770 771 771 769 767 754 752 753 756 757 759 760 761 762 762 762 761 759 757 755 753 751 749 747 743 740 737 734 731 729 725 722 718 714 712
757 763 766 768 775 773 765 755 758 762 763 763 763 754 752 755 757 757 758 759 759 760 761 761 760 759 758 756 754 750 747 745 742 739 734 730 727 723 719 716 712 709 706 703
760 763 770 772 778 776 755 755 756 760 757 758 757 756 756 757 758 758 758 759 758 759 759 758 757 755 754 752 749 746 743 740 735 731 726 722 719 715 711 708 704 701 698 694
760 764 777 774 774 761 752 760 759 760 755 753 754 755 757 759 760 756 757 758 757 758 758 756 754 752 750 748 745 741 737 733 729 723 719 715 712 707 703 700 696 692 689 685
767 765 769 790 777 766 756 760 760 762 759 760 759 759 759 761 757 749 756 757 756 756 755 753 751 749 746 743 740 736 730 726 721 716 712 708 705 701 697 693 688 683 680 677
770 773 771 779 775 761 756 761 760 765 763 763 762 760 760 759 756 756 757 756 755 754 752 751 748 745 742 738 735 729 723 718 715 710 706 702 699 694 689 684 679 676 672 668
764 769 771 772 777 768 759 760 761 760 760 762 761 759 759 757 755 754 754 753 752 749 747 745 743 739 737 734 729 722 717 713 709 704 699 695 690 685 680 676 671 667 664 660
757 754 758 758 756 759 759 759 758 760 761 759 760 758 758 755 753 752 751 750 748 746 743 741 738 734 730 728 724 716 710 707 702 697 692 686 681 676 672 667 662 658 655 651
758 762 756 756 757 757 758 760 759 759 759 758 757 757 756 754 752 750 747 746 744 741 740 737 733 728 723 721 717 713 707 701 696 690 683 678 672 666 662 659 655 650 646 642
756 760 757 757 757 756 755 757 758 757 757 757 757 756 756 754 750 748 745 742 740 739 736 733 729 724 719 715 711 707 701 696 689 683 677 671 665 660 654 650 645 640 635 634
759 756 758 756 760 761 758 758 757 757 758 758 758 756 755 754 750 746 743 741 739 736 732 728 724 720 715 710 705 700 696 690 684 678 672 666 660 654 649 643 633 630 626 622